Zurück zum Katalog

STARLINK-5986

AktivKommunikationVLEO
NORAD 56452·PAYLOAD·🇺🇸 United States

Gestartet May 10, 2023 von Vandenberg Space Force Base

Loading…

Nächste Überflüge (nächste 24 Stunden)

TLE

AktuellSource: CelesTrak SupGP

Epoche: Sep 15, 2026, 02:09 UTC

1 56452C 23064E   26258.09006944 -.00010270  00000+0 -86050-3 0  2583
2 56452  70.0025  27.0569 0003060 274.1105  55.7555 14.98343139    14

Verfolge STARLINK-5986 in Echtzeit mit AllMySat

Download on the App Store